Weather in Florida

Uruguay     34°05′42″S   56°12′41″W
temp.,
°C
wind,
m/s
gust,
m/s
humid.,
%
clouds,
%
prec.,
mm/h
press.,
hPa
HPBL,
m
9 august, tue
tue900:00+9ese3970100 0.0 1029323
03:00+7se377899 0.0 1029170
06:00+5se2286100 0.0 103029
09:00+8se267852 0.0 1032214
12:00+13se66545 0.0 10311215
15:00+14se56495 0.0 10291603
18:00+9sse48684 0.0 1030186
21:00+5sse37900 0.0 1032125
10 august, wed
wed1000:00+4ese22940 0.0 103135
03:00+3e22940 0.0 103011
06:00+3ene22930 0.0 102919
09:00+6ese11810 0.0 1030103
12:00+12ene34495 0.0 1029787
15:00+14nne445160 0.0 10261175
18:00+10ne3373100 0.0 102539
21:00+8ne3680100 0.0 1026101
11 august, thu
thu1100:00+6nne35895 0.0 102688
03:00+5nne36930 0.0 102593
06:00+4nne35920 0.0 102586
09:00+7n47820 0.0 1026195
12:00+14n56620 0.0 1025832
15:00+16n67560 0.0 10221176
18:00+11nne46800 0.0 1021106
21:00+9nne49920 0.0 1022152
12 august, fri
fri1200:00+7nne49935 0.0 1022160
03:00+7nne4119565 0.0 1021206
06:00+7nne41196100 0.0 1020224
09:00+10nne51187100 0.0 1020315
12:00+16nne6965100 0.0 1018723
15:00+18n6762100 0.0 10161114
18:00+14nne3685100 0.0 1015104
21:00+12nne41094100 0.0 1017196
13 august, sat
sat1300:00+11n49960 0.0 1017179
03:00+10n37960 0.0 1017138
06:00+10n35960 0.0 101778
09:00+13n23890 0.0 1018119
12:00+18nne22690 0.0 1018674
15:00+20ne33600 0.0 10161070
18:00+16ne33790 0.0 101638
21:00+13ne35910 0.0 101772